| time (UTC) | temp F | wind direction | speed MPH | gust MPH | rain 1hr in | rain 24hr in | rain mn in | humidity % | barometer mb |
| 20260503024516 | 53 | 203 | 6.0 | 11.0 | 0.00 | 0.28 | 0.01 | 96 | 1009.9 |
| 20260503023516 | 53 | 203 | 7.0 | 14.0 | 0.00 | 0.28 | 0.01 | 96 | 1010.0 |
| 20260503022516 | 53 | 203 | 5.0 | 11.0 | 0.00 | 0.28 | 0.01 | 96 | 1010.2 |
| 20260503021516 | 53 | 180 | 3.0 | 11.0 | 0.00 | 0.28 | 0.01 | 96 | 1010.2 |
| 20260503020516 | 53 | 180 | 3.0 | 7.0 | 0.00 | 0.28 | 0.01 | 96 | 1010.3 |
| 20260503015516 | 54 | 180 | 3.0 | 8.0 | 0.00 | 0.28 | 0.01 | 96 | 1010.3 |
| 20260503014516 | 54 | 180 | 4.0 | 8.0 | 0.00 | 0.28 | 0.01 | 97 | 1010.3 |
| 20260503013516 | 54 | 203 | 4.0 | 14.0 | 0.00 | 0.28 | 0.01 | 97 | 1010.5 |
| 20260503012516 | 54 | 203 | 7.0 | 13.0 | 0.00 | 0.28 | 0.01 | 97 | 1010.4 |
| 20260503011516 | 55 | 158 | 4.0 | 13.0 | 0.00 | 0.28 | 0.01 | 97 | 1010.6 |
| 20260503010516 | 55 | 158 | 2.0 | 5.0 | 0.00 | 0.28 | 0.01 | 98 | 1010.5 |
| 20260503005536 | 54 | 203 | 2.0 | 4.0 | 0.00 | 0.28 | 0.01 | 98 | 1010.5 |
| 20260503004516 | 54 | 0.0 | 1.0 | 0.01 | 0.28 | 0.01 | 97 | 1010.7 | |
| 20260503003516 | 54 | 0.0 | 1.0 | 0.01 | 0.28 | 0.01 | 97 | 1010.8 | |
| 20260503002516 | 54 | 0.0 | 2.0 | 0.01 | 0.28 | 0.01 | 97 | 1010.8 | |
| 20260503001516 | 54 | 90 | 1.0 | 3.0 | 0.01 | 0.28 | 0.01 | 97 | 1011.0 |
| 20260503000516 | 54 | 90 | 1.0 | 4.0 | 0.01 | 0.28 | 0.01 | 97 | 1011.1 |
| 20260502235516 | 54 | 0.0 | 3.0 | 0.01 | 0.28 | 0.01 | 97 | 1011.1 | |
| 20260502234516 | 54 | 90 | 1.0 | 4.0 | 0.00 | 0.27 | 0.00 | 97 | 1011.3 |
| 20260502233536 | 54 | 113 | 1.0 | 3.0 | 0.01 | 0.27 | 0.00 | 97 | 1011.4 |
| 20260502232516 | 54 | 68 | 1.0 | 8.0 | 0.02 | 0.27 | 0.00 | 96 | 1011.5 |
| 20260502231516 | 54 | 68 | 1.0 | 5.0 | 0.04 | 0.27 | 0.00 | 96 | 1011.5 |
| 20260502230516 | 54 | 68 | 1.0 | 3.0 | 0.05 | 0.27 | 0.00 | 96 | 1011.5 |
| 20260502225516 | 54 | 90 | 1.0 | 3.0 | 0.05 | 0.27 | 0.27 | 96 | 1011.6 |
| 20260502224516 | 54 | 90 | 1.0 | 4.0 | 0.05 | 0.27 | 0.27 | 95 | 1011.6 |
| 20260502223516 | 54 | 68 | 1.0 | 4.0 | 0.04 | 0.26 | 0.26 | 95 | 1011.7 |
| 20260502222516 | 54 | 90 | 1.0 | 4.0 | 0.02 | 0.24 | 0.24 | 95 | 1011.9 |
| 20260502221516 | 54 | 68 | 1.0 | 4.0 | 0.01 | 0.23 | 0.23 | 95 | 1012.1 |
| 20260502220516 | 54 | 68 | 1.0 | 3.0 | 0.00 | 0.22 | 0.22 | 95 | 1012.2 |
| 20260502215536 | 54 | 0.0 | 3.0 | 0.00 | 0.22 | 0.22 | 95 | 1012.1 | |
| 20260502214516 | 55 | 68 | 1.0 | 4.0 | 0.00 | 0.22 | 0.22 | 95 | 1012.1 |
| 20260502213516 | 55 | 68 | 1.0 | 3.0 | 0.00 | 0.22 | 0.22 | 95 | 1012.3 |
| 20260502212516 | 55 | 68 | 2.0 | 5.0 | 0.00 | 0.22 | 0.22 | 95 | 1012.5 |
| 20260502211516 | 55 | 45 | 4.0 | 6.0 | 0.00 | 0.22 | 0.22 | 95 | 1012.5 |
| 20260502210517 | 55 | 45 | 3.0 | 6.0 | 0.00 | 0.22 | 0.22 | 95 | 1012.7 |
| 20260502205537 | 55 | 45 | 1.0 | 4.0 | 0.01 | 0.22 | 0.22 | 95 | 1012.8 |
| 20260502204517 | 55 | 45 | 1.0 | 3.0 | 0.01 | 0.22 | 0.22 | 95 | 1012.8 |
| 20260502203517 | 55 | 68 | 1.0 | 4.0 | 0.01 | 0.22 | 0.22 | 95 | 1012.9 |
| 20260502202536 | 55 | 68 | 1.0 | 2.0 | 0.01 | 0.22 | 0.22 | 95 | 1013.1 |
| 20260502201537 | 55 | 45 | 2.0 | 3.0 | 0.01 | 0.22 | 0.22 | 95 | 1013.1 |
| 20260502200516 | 56 | 45 | 2.0 | 4.0 | 0.02 | 0.22 | 0.22 | 94 | 1013.1 |
| 20260502195517 | 56 | 45 | 2.0 | 3.0 | 0.06 | 0.21 | 0.21 | 94 | 1013.2 |
| 20260502194516 | 56 | 45 | 2.0 | 3.0 | 0.09 | 0.21 | 0.21 | 94 | 1013.2 |
| 20260502193517 | 56 | 23 | 1.0 | 3.0 | 0.13 | 0.21 | 0.21 | 93 | 1013.3 |
| 20260502192516 | 57 | 23 | 1.0 | 3.0 | 0.17 | 0.21 | 0.21 | 92 | 1013.2 |
| 20260502191517 | 57 | 0.0 | 1.0 | 0.19 | 0.21 | 0.21 | 91 | 1013.5 | |
| 20260502190515 | 58 | 0.0 | 1.0 | 0.18 | 0.20 | 0.20 | 90 | 1013.7 | |
| 20260502185517 | 58 | 0.0 | 0.0 | 0.15 | 0.16 | 0.16 | 88 | 1014.0 | |
| 20260502184517 | 59 | 203 | 2.0 | 5.0 | 0.13 | 0.13 | 0.13 | 87 | 1014.1 |
| 20260502183517 | 60 | 203 | 3.0 | 7.0 | 0.09 | 0.09 | 0.09 | 85 | 1014.1 |
| 20260502182515 | 61 | 225 | 2.0 | 5.0 | 0.04 | 0.04 | 0.04 | 83 | 1013.8 |
| 20260502181515 | 62 | 225 | 1.0 | 4.0 | 0.02 | 0.02 | 0.02 | 81 | 1013.7 |
| 20260502180517 | 62 | 225 | 2.0 | 6.0 | 0.02 | 0.02 | 0.02 | 78 | 1013.7 |
| 20260502170515 | 64 | 0.0 | 1.0 | 0.00 | 0.00 | 0.00 | 64 | 1013.9 | |
| 20260502163515 | 65 | 90 | 1.0 | 5.0 | 0.00 | 0.00 | 0.00 | 64 | 1014.1 |
| 20260502162515 | 66 | 0.0 | 2.0 | 0.00 | 0.00 | 0.00 | 63 | 1014.2 | |
| 20260502161515 | 67 | 158 | 1.0 | 4.0 | 0.00 | 0.00 | 0.00 | 61 | 1014.4 |
| 20260502160517 | 67 | 0.0 | 3.0 | 0.00 | 0.00 | 0.00 | 62 | 1014.5 | |
| 20260502151517 | 68 | 158 | 1.0 | 4.0 | 0.00 | 0.00 | 0.00 | 57 | 1015.1 |
| 20260502150557 | 68 | 203 | 2.0 | 6.0 | 0.00 | 0.00 | 0.00 | 55 | 1015.2 |
| 20260502130537 | 68 | 248 | 3.0 | 11.0 | 0.00 | 0.00 | 0.00 | 54 | 1016.9 |
| 20260502123517 | 68 | 158 | 4.0 | 11.0 | 0.00 | 0.00 | 0.00 | 57 | 1017.1 |
| 20260502122517 | 68 | 203 | 4.0 | 8.0 | 0.00 | 0.00 | 0.00 | 57 | 1017.0 |
| 20260502121517 | 68 | 158 | 1.0 | 4.0 | 0.00 | 0.00 | 0.00 | 56 | 1017.2 |
| 20260502120517 | 68 | 225 | 4.0 | 10.0 | 0.00 | 0.00 | 0.00 | 56 | 1017.5 |
| 20260502115537 | 67 | 225 | 6.0 | 11.0 | 0.00 | 0.00 | 0.00 | 56 | 1017.6 |
| 20260502114517 | 67 | 158 | 3.0 | 11.0 | 0.00 | 0.00 | 0.00 | 60 | 1017.5 |
| 20260502113516 | 66 | 45 | 2.0 | 7.0 | 0.00 | 0.00 | 0.00 | 58 | 1017.5 |
| 20260502112517 | 66 | 225 | 5.0 | 10.0 | 0.00 | 0.00 | 0.00 | 60 | 1017.8 |
| 20260502111517 | 66 | 225 | 3.0 | 9.0 | 0.00 | 0.00 | 0.00 | 61 | 1018.2 |
| 20260502110517 | 66 | 203 | 3.0 | 6.0 | 0.00 | 0.00 | 0.00 | 63 | 1018.3 |
| 20260502105516 | 66 | 270 | 3.0 | 7.0 | 0.00 | 0.00 | 0.00 | 62 | 1018.5 |
| 20260502104517 | 66 | 270 | 3.0 | 7.0 | 0.00 | 0.00 | 0.00 | 62 | 1018.4 |
| 20260502103516 | 65 | 248 | 3.0 | 7.0 | 0.00 | 0.00 | 0.00 | 62 | 1018.3 |
| 20260502102517 | 65 | 270 | 3.0 | 6.0 | 0.00 | 0.00 | 0.00 | 62 | 1018.3 |
| 20260502101537 | 64 | 248 | 2.0 | 7.0 | 0.00 | 0.00 | 0.00 | 64 | 1018.3 |
| 20260502100516 | 64 | 270 | 2.0 | 6.0 | 0.00 | 0.00 | 0.00 | 66 | 1018.4 |
| 20260502091516 | 62 | 203 | 3.0 | 7.0 | 0.00 | 0.00 | 0.00 | 69 | 1019.1 |
| 20260502090516 | 62 | 248 | 2.0 | 7.0 | 0.00 | 0.00 | 0.00 | 70 | 1019.3 |
| 20260502071516 | 55 | 315 | 1.0 | 4.0 | 0.00 | 0.00 | 0.00 | 84 | 1019.5 |
| 20260502070516 | 55 | 293 | 2.0 | 6.0 | 0.00 | 0.00 | 0.00 | 84 | 1019.5 |
| 20260502065536 | 54 | 225 | 1.0 | 5.0 | 0.00 | 0.00 | 0.00 | 86 | 1019.5 |
| 20260502064516 | 53 | 203 | 2.0 | 4.0 | 0.00 | 0.00 | 0.00 | 87 | 1019.4 |
| 20260502063516 | 53 | 203 | 1.0 | 3.0 | 0.00 | 0.00 | 0.00 | 88 | 1019.4 |
| 20260502062516 | 52 | 0.0 | 1.0 | 0.00 | 0.00 | 0.00 | 89 | 1019.3 | |
| 20260502061516 | 51 | 0.0 | 3.0 | 0.00 | 0.00 | 0.00 | 90 | 1019.3 | |
| 20260502060516 | 51 | 0.0 | 1.0 | 0.00 | 0.00 | 0.00 | 91 | 1019.2 | |
| 20260502055516 | 50 | 0.0 | 1.0 | 0.00 | 0.00 | 0.00 | 91 | 1019.2 | |
| 20260502054516 | 50 | 0.0 | 2.0 | 0.00 | 0.00 | 0.00 | 91 | 1019.3 | |
| 20260502053516 | 49 | 293 | 1.0 | 3.0 | 0.00 | 0.00 | 0.00 | 92 | 1019.2 |
| 20260502052516 | 49 | 0.0 | 0.0 | 0.00 | 0.00 | 0.00 | 92 | 1019.2 | |
| 20260502051516 | 49 | 0.0 | 0.0 | 0.00 | 0.00 | 0.00 | 92 | 1019.2 | |
| 20260502050536 | 49 | 0.0 | 0.0 | 0.00 | 0.00 | 0.00 | 91 | 1019.1 | |
| 20260502045516 | 49 | 0.0 | 0.0 | 0.00 | 0.00 | 0.00 | 91 | 1019.3 | |
| 20260502044516 | 49 | 315 | 1.0 | 2.0 | 0.00 | 0.00 | 0.00 | 91 | 1019.3 |
| 20260502043516 | 49 | 293 | 1.0 | 3.0 | 0.00 | 0.00 | 0.00 | 91 | 1019.2 |
| 20260502042536 | 49 | 293 | 2.0 | 3.0 | 0.00 | 0.00 | 0.00 | 90 | 1019.1 |
| 20260502041516 | 49 | 293 | 1.0 | 3.0 | 0.00 | 0.00 | 0.00 | 89 | 1019.3 |
| 20260502040516 | 50 | 293 | 1.0 | 2.0 | 0.00 | 0.00 | 0.00 | 89 | 1019.4 |
| 20260502035515 | 50 | 293 | 2.0 | 3.0 | 0.00 | 0.00 | 0.00 | 88 | 1019.4 |
| 20260502034516 | 51 | 293 | 1.0 | 3.0 | 0.00 | 0.00 | 0.00 | 88 | 1019.3 |
| 20260502033516 | 51 | 293 | 1.0 | 2.0 | 0.00 | 0.00 | 0.00 | 87 | 1019.4 |
| 20260502032515 | 51 | 0.0 | 1.0 | 0.00 | 0.00 | 0.00 | 87 | 1019.3 | |
| 20260502031516 | 52 | 0.0 | 2.0 | 0.00 | 0.00 | 0.00 | 86 | 1019.4 | |
| 20260502030516 | 52 | 293 | 2.0 | 4.0 | 0.00 | 0.00 | 0.00 | 86 | 1019.6 |
| 20260502025515 | 52 | 293 | 2.0 | 4.0 | 0.00 | 0.00 | 0.00 | 86 | 1019.7 |